Fountain Dale, PA

10:06 AM EDT on May 23, 2017 (GMT -0400)
Fountain Dale

Weather History for KRYT - September, 2013

Change the Weather History Date:

Wednesday, September 18, 2013

  Actual Average (KHGR) Record (KHGR)
Temperature  
Mean Temperature 60 °F -  
Max Temperature 75 °F 73 °F 85 °F (2015)
Min Temperature 46 °F 54 °F 43 °F (2013)
Degree Days  
Heating Degree Days 4    
Growing Degree Days 10 (Base 50)    
Moisture  
Dew Point 44 °F    
Average Humidity 60    
Maximum Humidity 80    
Minimum Humidity 30    
Precipitation  
Precipitation 0.00 in - - ()
Sea Level Pressure  
Sea Level Pressure 30.27 in    
Wind  
Wind Speed 0 mph (SSW)    
Max Wind Speed 5 mph    
Max Gust Speed -    
Visibility 10 miles    
Events      
Averages and records for this station are not official NWS values.
T = Trace of Precipitation, MM = Missing Value Source: NWS Daily Summary

Daily Weather History Graph

Daily Weather History Graph

Search for Another Location

Airport or City:

Trip Planner

Search our weather history database for the weather conditions in past years. The results will help you decide how hot, cold, wet, or windy it might be!

Date:

Astronomy

Sep. 18, 2013 Rise Set
Actual Time 6:53 AM EDT 7:13 PM EDT
Civil Twilight 6:26 AM EDT 7:39 PM EDT
Nautical Twilight 5:55 AM EDT 8:11 PM EDT
Astronomical Twilight 5:22 AM EDT 8:43 PM EDT
Moon 6:34 PM EDT (9/18) 5:54 AM EDT (9/18)
Length of Visible Light 13h 13m
Length of Day
12h 19m
Waxing Gibbous, 99% of the Moon is Illuminated
Sep 18
Waxing Gibbous
Sep 19
Full
Sep 26
Last Quarter
Oct 4
New
Oct 11
First Quarter

Hourly Weather History & Observations

Time (EDT) Temp. Dew Point Humidity Pressure Visibility Wind Dir Wind Speed Gust Speed Precip Events Conditions
12:53 AM 46.9 °F 39.9 °F 77% 30.34 in 10.0 mi Calm Calm - N/A   Clear
1:53 AM 48.0 °F 41.0 °F 77% 30.34 in 10.0 mi Calm Calm - N/A   Clear
2:53 AM 46.9 °F 39.9 °F 77% 30.32 in 10.0 mi Calm Calm - N/A   Clear
3:53 AM 46.9 °F 39.9 °F 77% 30.31 in 10.0 mi Calm Calm - N/A   Clear
4:53 AM 46.9 °F 39.9 °F 77% 30.31 in 10.0 mi Calm Calm - N/A   Clear
5:53 AM 46.9 °F 41.0 °F 80% 30.31 in 10.0 mi Calm Calm - N/A   Clear
6:53 AM 46.9 °F 41.0 °F 80% 30.32 in 10.0 mi Calm Calm - N/A   Clear
7:53 AM 46.9 °F 41.0 °F 80% 30.33 in 10.0 mi Calm Calm - N/A   Clear
8:53 AM 55.0 °F 48.0 °F 77% 30.33 in 10.0 mi Calm Calm - N/A   Clear
9:53 AM 63.0 °F 48.0 °F 58% 30.32 in 10.0 mi Calm Calm - N/A   Clear
10:53 AM 66.9 °F 48.0 °F 51% 30.30 in 10.0 mi Calm Calm - N/A   Clear
11:53 AM 70.0 °F 46.9 °F 44% 30.29 in 10.0 mi Variable 3.5 mph - N/A   Overcast
12:53 PM 71.1 °F 45.0 °F 39% 30.27 in 10.0 mi Calm Calm - N/A   Clear
1:53 PM 73.9 °F 46.0 °F 37% 30.24 in 10.0 mi Calm Calm - N/A   Clear
2:53 PM 73.9 °F 45.0 °F 35% 30.22 in 10.0 mi SSW 4.6 mph - N/A   Clear
3:53 PM 75.0 °F 44.1 °F 33% 30.20 in 10.0 mi Calm Calm - N/A   Clear
4:53 PM 73.9 °F 41.0 °F 30% 30.19 in 10.0 mi Variable 4.6 mph - N/A   Clear
5:53 PM 72.0 °F 44.1 °F 37% 30.18 in 10.0 mi Calm Calm - N/A   Clear
6:53 PM 68.0 °F 46.0 °F 45% 30.19 in 10.0 mi Calm Calm - N/A   Clear
7:53 PM 61.0 °F 46.9 °F 60% 30.20 in 10.0 mi Calm Calm - N/A   Clear
8:53 PM 57.0 °F 46.9 °F 69% 30.21 in 10.0 mi Calm Calm - N/A   Clear
10:53 PM 54.0 °F 45.0 °F 72% 30.20 in 10.0 mi Calm Calm - N/A   Clear
11:53 PM 53.1 °F 45.0 °F 74% 30.19 in 10.0 mi Calm Calm - N/A   Clear